CZ-2C DEB (43533 NORAD) Tracking and Keplerian Element Data

This shows tracking and keplerian element data for the satellite.

Feedback or suggestion? Click here.




ElementValue
Catalog43533
NameCZ-2C DEB
Epoch Orbit136
Epoch Day198.95079333
Epoch Year2018
RAAN270.3623
Inclination98.069
Eccentricity0.0210798
Argument of Perigee140.8892
Mean Anonmoly220.7782
Mean Motion15.66622442
Decay Rate0.0146119
L11 43533U 18056E 18198.95079333 .01461190 74219-3 39238-2 0 9999
L22 43533 98.0690 270.3623 0210798 140.8892 220.7782 15.66622442 1360

Live tracking and technical data element details for CZ-2C DEB (NORAD 43533). CZ-2C DEB can be tracked NOW for your location showing map with azimuth and elevation plus other details from your city location.

Track the satellite on the map from your city or location and see movement details for azimuth, elevation, latitude, longitude, range, height, and movement on the map or in text.







IsCatalogInMostPopularTable: catalog: 43533, numindb: 6
Update: records affected: 1



GetName: 43533 CZ-2C DEB

Hit Count: updated at: Thu, 19 Jul 2018 03:39:25 GMT